Stations météo

réclame
Mon MeteoGroup
F3, Pays-Bas (6239): Température de l'air & dewpoint: 29.03.2020 08:00:00 - 04.04.2020 08:00:00 (CEST)F3, Pays-Bas (6239): Vitesse du vent & gusts: 29.03.2020 08:00:00 - 04.04.2020 08:00:00 (CEST)F3, Pays-Bas (6239): Direction du vent: 29.03.2020 08:00:00 - 04.04.2020 08:00:00 (CEST)F3, Pays-Bas (6239): reduced air pressure: 29.03.2020 08:00:00 - 04.04.2020 08:00:00 (CEST)F3, Pays-Bas (6239): visibility: 29.03.2020 08:00:00 - 04.04.2020 08:00:00 (CEST)
Date & Time tt [°C] td [°C] ff [km/h] ff [knt] fx [km/h] fx [knt] dd ppp [hPa] vv [km]
04.04.2020 08:00:00 7,0 5,0 29 16 - - - 1018,6 10
04.04.2020 07:00:00 7,2 4,7 34 18 32 18 - 1018,1 10
04.04.2020 06:00:00 7,2 4,5 35 19 36 19 - 1017,6 10
04.04.2020 05:00:00 7,0 4,7 31 17 29 16 - 1017,4 10
04.04.2020 04:00:00 6,9 5,0 26 14 25 14 - 1017,7 10
04.04.2020 03:00:00 6,9 4,8 18 10 22 12 - 1017,7 10
04.04.2020 02:00:00 6,7 4,9 24 13 29 16 - 1017,5 17
04.04.2020 01:00:00 6,9 4,4 28 15 29 16 - 1017,2 10
04.04.2020 00:00:00 6,6 4,2 34 18 32 18 - 1016,8 23
03.04.2020 23:00:00 6,5 3,6 34 18 36 19 - 1016,6 10
03.04.2020 22:00:00 6,3 2,1 34 18 32 18 - 1016,5 10
03.04.2020 21:00:00 6,2 1,4 31 17 32 18 - 1016,3 10
03.04.2020 20:00:00 6,1 0,5 29 16 36 19 - 1015,9 10
03.04.2020 19:00:00 6,1 -0,7 37 20 36 19 - 1015,6 10
03.04.2020 18:00:00 6,0 -0,3 37 20 36 19 - 1015,1 10
03.04.2020 17:00:00 6,0 0,0 26 14 54 29 - 1014,7 10
03.04.2020 16:00:00 4,6 0,5 40 21 58 31 - 1014,4 29
03.04.2020 15:00:00 5,9 -2,0 39 21 40 21 NNE 1014,1 10
03.04.2020 14:00:00 5,8 -1,4 37 20 40 21 NNE 1013,7 10
03.04.2020 13:00:00 5,6 -2,0 39 21 40 21 NE 1013,3 10
03.04.2020 12:00:00 5,5 -1,9 37 20 36 19 NE 1012,9 10
03.04.2020 11:00:00 5,1 0,8 37 20 36 19 NE 1012,5 10
03.04.2020 10:00:00 5,2 0,8 31 17 36 19 NE 1011,6 10
03.04.2020 09:00:00 4,5 0,2 35 19 50 27 ENE 1011,0 10
03.04.2020 08:00:00 5,3 0,1 42 23 47 25 ENE 1010,3 10
03.04.2020 07:00:00 5,2 0,0 46 25 50 27 ENE 1009,6 10
03.04.2020 06:00:00 5,8 -1,9 52 28 50 27 NE 1009,0 10
03.04.2020 05:00:00 5,9 -2,3 52 28 54 29 NE 1008,9 10
03.04.2020 04:00:00 5,9 -2,1 54 29 54 29 NE 1008,5 10
03.04.2020 03:00:00 5,8 -1,5 54 29 54 29 NE 1008,1 10
03.04.2020 02:00:00 5,8 -1,6 52 28 58 31 NE 1008,1 10
03.04.2020 01:00:00 6,0 -2,0 57 31 58 31 NE 1007,8 10
03.04.2020 00:00:00 5,9 -2,6 57 31 61 33 NE 1007,6 10
02.04.2020 23:00:00 6,0 -2,7 57 31 61 33 ENE 1007,3 10
02.04.2020 22:00:00 6,1 -1,5 55 30 58 31 NE 1006,8 10
02.04.2020 21:00:00 6,0 -2,0 54 29 54 29 NE 1006,6 10
02.04.2020 20:00:00 6,4 -1,2 59 32 61 33 NE 1006,1 10
02.04.2020 19:00:00 6,5 0,3 50 27 54 29 NE 1005,6 10
02.04.2020 18:00:00 6,3 2,7 42 23 58 31 ENE 1005,4 10
02.04.2020 17:00:00 8,0 4,9 61 33 61 33 NNE 1003,9 10
02.04.2020 16:00:00 7,9 4,7 63 34 65 35 N 1003,8 10
02.04.2020 15:00:00 7,6 4,4 65 35 65 35 N 1004,0 10
02.04.2020 14:00:00 7,4 4,1 61 33 65 35 N 1004,2 10
02.04.2020 13:00:00 7,0 4,0 59 32 61 33 N 1004,9 10
02.04.2020 12:00:00 6,8 4,4 55 30 58 31 N 1005,7 10
02.04.2020 11:00:00 7,0 5,1 55 30 54 29 N 1006,6 10
02.04.2020 10:00:00 7,0 5,2 50 27 50 27 N 1007,2 10
02.04.2020 09:00:00 6,8 5,2 48 26 50 27 N 1007,7 10
02.04.2020 08:00:00 6,8 5,2 44 24 43 23 N 1008,7 10
02.04.2020 07:00:00 6,9 5,2 32 18 40 21 N 1009,2 27
02.04.2020 06:00:00 6,9 4,9 41 22 40 21 N 1010,0 10
02.04.2020 05:00:00 6,8 4,5 32 18 40 21 N 1010,5 26
02.04.2020 04:00:00 6,8 4,0 42 23 43 23 N 1011,6 10
02.04.2020 03:00:00 6,7 3,7 44 24 43 23 N 1012,0 10
02.04.2020 02:00:00 6,7 3,8 39 21 40 21 N 1013,1 10
02.04.2020 01:00:00 6,7 3,3 41 22 40 21 N 1013,9 10
02.04.2020 00:00:00 6,5 3,3 39 21 40 21 N 1014,5 10
01.04.2020 23:00:00 6,5 3,3 39 21 40 21 N 1014,9 10
01.04.2020 22:00:00 6,5 3,3 37 20 36 19 N 1015,2 10
01.04.2020 21:00:00 6,6 3,3 35 19 36 19 NNE 1015,5 10
01.04.2020 20:00:00 6,6 3,8 35 19 36 19 NNE 1015,8 10
01.04.2020 19:00:00 6,7 3,9 34 18 36 19 NNE 1016,2 10
01.04.2020 18:00:00 6,7 4,1 32 18 36 19 NNE 1016,6 40
01.04.2020 17:00:00 6,6 4,6 35 19 40 21 NNE 1017,1 10
01.04.2020 16:00:00 6,6 4,8 29 16 32 18 NNE 1017,6 31
01.04.2020 15:00:00 6,6 4,8 31 17 32 18 NNE 1018,2 10
01.04.2020 14:00:00 6,6 4,7 34 18 32 18 NNE 1018,8 10
01.04.2020 13:00:00 6,6 4,7 34 18 32 18 N 1019,3 10
01.04.2020 12:00:00 6,6 4,5 28 15 29 16 NNE 1019,9 10
01.04.2020 11:00:00 6,6 4,5 31 17 32 18 NNE 1020,2 10
01.04.2020 10:00:00 6,6 4,4 34 18 36 19 NNE 1020,3 10
01.04.2020 09:00:00 6,6 4,5 35 19 36 19 NNE 1020,7 10
01.04.2020 08:00:00 6,6 3,5 37 20 40 21 NNE 1020,9 10
01.04.2020 07:00:00 6,6 4,3 41 22 40 21 NNE 1021,3 10
01.04.2020 06:00:00 6,5 4,0 39 21 40 21 NE 1021,9 10
01.04.2020 05:00:00 6,1 3,4 35 19 47 25 NE 1022,6 10
01.04.2020 04:00:00 6,5 3,8 35 19 32 18 NNE 1023,1 10
01.04.2020 03:00:00 6,4 3,7 34 18 36 19 NNE 1024,0 10
01.04.2020 02:00:00 6,1 2,9 31 17 32 18 NNE 1024,8 10
01.04.2020 01:00:00 5,9 2,8 31 17 32 18 NE 1025,5 10
01.04.2020 00:00:00 6,1 3,3 29 16 36 19 NE 1026,3 10
31.03.2020 23:00:00 6,1 3,0 35 19 40 21 NNE 1026,9 10
31.03.2020 22:00:00 6,1 2,8 31 17 32 18 NNE 1027,5 10
31.03.2020 21:00:00 6,0 3,2 25 14 32 18 NNE 1028,2 50
31.03.2020 20:00:00 5,9 3,7 21 11 29 16 NNE 1028,7 10
31.03.2020 19:00:00 5,9 3,1 28 15 29 16 NNE 1029,3 10
31.03.2020 18:00:00 5,5 2,3 25 14 29 16 NE 1029,9 21
31.03.2020 17:00:00 6,1 1,8 26 14 25 14 NE 1030,5 10
31.03.2020 16:00:00 5,9 0,8 22 12 22 12 NNE 1031,2 10
31.03.2020 15:00:00 5,7 1,0 22 12 - - NNE 1031,7 10
31.03.2020 14:00:00 5,5 0,0 - - - - - 1032,5 10
31.03.2020 13:00:00 5,5 -2,9 - - - - - 1032,9 10
31.03.2020 12:00:00 5,4 -2,9 - - - - - 1033,3 10
31.03.2020 11:00:00 5,3 -2,5 - - - - - 1033,7 10
31.03.2020 10:00:00 5,2 -2,3 - - - - - 1033,8 10
31.03.2020 09:00:00 5,1 -2,8 - - - - - 1033,9 10
31.03.2020 08:00:00 5,1 -3,0 5 3 7 4 - 1033,8 10
31.03.2020 07:00:00 4,9 -3,1 9 5 14 8 - 1033,5 10
31.03.2020 06:00:00 4,8 -2,9 13 7 18 10 - 1033,1 10
31.03.2020 05:00:00 5,0 -3,7 14 8 22 12 - 1033,1 50
31.03.2020 04:00:00 5,2 -2,7 26 14 29 16 - 1033,0 10
31.03.2020 03:00:00 5,5 -3,3 29 16 29 16 - 1032,9 10
31.03.2020 02:00:00 5,6 -4,3 31 17 29 16 - 1032,5 10
31.03.2020 01:00:00 5,7 -2,4 29 16 32 18 - 1032,4 10
31.03.2020 00:00:00 5,8 -1,6 29 16 29 16 - 1032,2 10
30.03.2020 23:00:00 5,8 -1,1 29 16 32 18 - 1031,8 10
30.03.2020 22:00:00 5,8 -0,2 34 18 32 18 - 1031,5 10
30.03.2020 21:00:00 5,8 0,5 31 17 32 18 - 1030,8 10
30.03.2020 20:00:00 5,9 0,8 31 17 32 18 - 1030,2 10
30.03.2020 19:00:00 6,0 1,4 29 16 36 19 - 1029,8 10
30.03.2020 18:00:00 6,2 2,4 18 10 36 19 - 1029,3 10
30.03.2020 17:00:00 6,3 2,8 22 12 36 19 - 1029,0 10
30.03.2020 16:00:00 6,3 2,8 11 6 32 18 - 1029,2 29
30.03.2020 15:00:00 6,2 2,5 18 10 32 18 - 1029,1 10
30.03.2020 14:00:00 6,3 2,8 28 15 36 19 - 1029,2 10
30.03.2020 13:00:00 6,4 3,1 35 19 43 23 - 1029,4 10
30.03.2020 12:00:00 6,4 3,3 32 18 47 25 - 1029,9 19
30.03.2020 11:00:00 6,3 3,5 28 15 47 25 - 1030,0 31
30.03.2020 10:00:00 6,4 3,0 42 23 43 23 - 1030,5 10
30.03.2020 09:00:00 6,2 3,0 44 24 47 25 - 1030,4 10
30.03.2020 08:00:00 6,3 2,4 31 17 40 21 - 1030,9 10
30.03.2020 07:00:00 6,1 2,1 29 16 40 21 - 1031,2 42
30.03.2020 06:00:00 6,0 1,0 28 15 36 19 - 1031,6 10
30.03.2020 05:00:00 5,7 1,4 34 18 40 21 - 1032,1 10
30.03.2020 04:00:00 5,5 1,8 35 19 47 25 - 1032,9 10
30.03.2020 03:00:00 4,9 2,4 28 15 40 21 - 1033,4 10
30.03.2020 02:00:00 5,4 1,5 37 20 40 21 - 1034,5 10
30.03.2020 01:00:00 5,2 0,3 34 18 32 18 - 1035,5 10
30.03.2020 00:00:00 5,0 -1,4 35 19 36 19 - 1036,4 10
29.03.2020 23:00:00 4,9 -1,8 34 18 40 21 - 1037,1 10
29.03.2020 22:00:00 4,6 -2,0 22 12 40 21 - 1037,7 10
29.03.2020 21:00:00 4,7 -2,8 26 14 40 21 - 1038,1 10
29.03.2020 20:00:00 4,8 -2,9 21 11 43 23 - 1038,4 10
29.03.2020 19:00:00 4,7 -3,3 29 16 43 23 - 1038,5 10
29.03.2020 18:00:00 4,1 -6,0 22 12 43 23 - 1038,7 10
29.03.2020 17:00:00 4,4 -6,2 22 12 36 19 - 1039,0 10
29.03.2020 16:00:00 3,9 -8,9 22 12 43 23 - 1039,1 10
29.03.2020 15:00:00 3,9 -6,1 29 16 47 25 - 1039,1 45
29.03.2020 14:00:00 3,6 -8,2 42 23 50 27 - 1039,2 10
29.03.2020 13:00:00 3,8 -7,6 46 25 50 27 - 1039,1 10
29.03.2020 12:00:00 3,8 -7,7 50 27 54 29 - 1038,6 10
29.03.2020 11:00:00 3,8 -8,1 57 31 58 31 - 1038,2 10
29.03.2020 10:00:00 4,0 -8,1 57 31 65 35 - 1037,5 10
29.03.2020 09:00:00 4,4 -4,5 57 31 65 35 - 1036,7 10
29.03.2020 08:00:00 4,4 -4,4 55 30 61 33 - 1035,2 10

tt = Température de l'air
td = dewpoint
ff = Vitesse du vent
fx = gusts
dd = Direction du vent
ppp = reduced air pressure
vv = visibility

stations d'obs. à proximité